ALK402 VCBI-VTBS

Flight info

Callsign ALK402
Flight time 3h 8m
Altitude 35000
Route DORTA1D ESPAP P762 PPB/N0448F370 P762 DWI L877 MIGAR L524 IBETO WILLA1C
Aircraft A320/M-SDE3FGHIRWY/LB1

Departure

Time 2026-04-23 13:27
Airport Bandaranaike International Colombo Airport (VCBI)

Arrival

Time 2026-04-23 16:36
Airport Suvarnabhumi Airport (VTBS)
Time Latitude Longitude Altitude Speed Heading
2026-04-23 12:55 7.17543 79.88516 27 ft 0 kts 37°
2026-04-23 13:15 7.17541 79.88514 27 ft 3 kts 37°
2026-04-23 13:15 7.17519 79.88498 27 ft 4 kts 37°
2026-04-23 13:15 7.17498 79.88482 27 ft 3 kts 37°
2026-04-23 13:15 7.17483 79.88468 27 ft 4 kts 88°
2026-04-23 13:16 7.17490 79.88447 27 ft 2 kts 111°
2026-04-23 13:16 7.17498 79.88424 27 ft 4 kts 126°
2026-04-23 13:16 7.17514 79.88402 27 ft 4 kts 127°
2026-04-23 13:16 7.17531 79.88381 27 ft 4 kts 127°
2026-04-23 13:17 7.17547 79.88359 27 ft 4 kts 127°
2026-04-23 13:17 7.17564 79.88337 27 ft 4 kts 127°
2026-04-23 13:17 7.17580 79.88316 27 ft 4 kts 127°
2026-04-23 13:17 7.17596 79.88294 27 ft 4 kts 127°
2026-04-23 13:18 7.17612 79.88272 27 ft 4 kts 123°
2026-04-23 13:18 7.17626 79.88249 28 ft 3 kts 119°
2026-04-23 13:18 7.17630 79.88242 28 ft 0 kts 120°
2026-04-23 13:20 7.17630 79.88247 28 ft 1 kts 91°
2026-04-23 13:21 7.17635 79.88249 28 ft 0 kts 33°
2026-04-23 13:21 7.17650 79.88252 28 ft 6 kts 18°
2026-04-23 13:21 7.17710 79.88292 28 ft 14 kts 37°
2026-04-23 13:21 7.17761 79.88330 28 ft 14 kts 37°
2026-04-23 13:22 7.17849 79.88397 27 ft 17 kts 37°
2026-04-23 13:22 7.17945 79.88470 27 ft 18 kts 37°
2026-04-23 13:22 7.18048 79.88550 27 ft 19 kts 37°
2026-04-23 13:22 7.18159 79.88635 27 ft 21 kts 37°
2026-04-23 13:23 7.18277 79.88725 27 ft 22 kts 37°
2026-04-23 13:23 7.18407 79.88823 27 ft 27 kts 37°
2026-04-23 13:23 7.18571 79.88948 28 ft 31 kts 37°
2026-04-23 13:23 7.18739 79.89076 28 ft 30 kts 38°
2026-04-23 13:24 7.18892 79.89194 27 ft 27 kts 37°
2026-04-23 13:24 7.19042 79.89309 27 ft 27 kts 37°
2026-04-23 13:24 7.19140 79.89384 27 ft 8 kts 37°
2026-04-23 13:24 7.19184 79.89414 27 ft 6 kts 21°
2026-04-23 13:25 7.19222 79.89391 27 ft 7 kts 309°
2026-04-23 13:25 7.19257 79.89344 26 ft 9 kts 307°
2026-04-23 13:25 7.19293 79.89294 27 ft 8 kts 299°
2026-04-23 13:25 7.19274 79.89260 27 ft 2 kts 216°
2026-04-23 13:26 7.19273 79.89260 27 ft 0 kts 216°
2026-04-23 13:26 7.19264 79.89253 27 ft 8 kts 217°
2026-04-23 13:26 7.19077 79.89110 28 ft 66 kts 217°
2026-04-23 13:27 7.18547 79.88705 28 ft 121 kts 217°
2026-04-23 13:27 7.17769 79.88110 33 ft 162 kts 217°
2026-04-23 13:27 7.16843 79.87384 461 ft 165 kts 216°
2026-04-23 13:27 7.15876 79.86812 948 ft 163 kts 189°
2026-04-23 13:28 7.14774 79.87015 1354 ft 171 kts 149°
2026-04-23 13:28 7.13699 79.87692 1630 ft 192 kts 148°
2026-04-23 13:28 7.12531 79.88426 1989 ft 206 kts 149°
2026-04-23 13:28 7.11686 79.88947 2259 ft 216 kts 149°
2026-04-23 13:29 7.10042 79.90226 2722 ft 243 kts 123°
2026-04-23 13:29 7.09600 79.91898 3153 ft 260 kts 86°
2026-04-23 13:29 7.10263 79.93611 3684 ft 271 kts 51°
2026-04-23 13:29 7.11654 79.94901 4425 ft 274 kts 36°
2026-04-23 13:30 7.13252 79.95954 5209 ft 275 kts 32°
2026-04-23 13:30 7.14885 79.96951 6018 ft 275 kts 32°
2026-04-23 13:30 7.16511 79.97981 6708 ft 278 kts 33°
2026-04-23 13:30 7.18121 79.99069 7379 ft 280 kts 35°
2026-04-23 13:31 7.19716 80.00211 8047 ft 283 kts 36°
2026-04-23 13:31 7.20769 80.00990 8473 ft 285 kts 37°
2026-04-23 13:31 7.22361 80.02193 9135 ft 287 kts 37°
2026-04-23 13:31 7.24281 80.04071 9955 ft 291 kts 55°
2026-04-23 13:32 7.24965 80.05233 10313 ft 294 kts 64°
2026-04-23 13:32 7.25624 80.07258 10440 ft 316 kts 80°
2026-04-23 13:32 7.25799 80.09527 10578 ft 334 kts 86°
2026-04-23 13:32 7.25919 80.11899 10934 ft 343 kts 86°
2026-04-23 13:33 7.26039 80.14310 11431 ft 346 kts 86°
2026-04-23 13:33 7.26164 80.16745 11971 ft 350 kts 86°
2026-04-23 13:33 7.26293 80.19201 12492 ft 353 kts 86°
2026-04-23 13:33 7.26426 80.21680 13016 ft 356 kts 86°
2026-04-23 13:34 7.26564 80.24181 13534 ft 359 kts 86°
2026-04-23 13:34 7.26703 80.26701 13998 ft 362 kts 86°
2026-04-23 13:34 7.26843 80.29241 14463 ft 364 kts 86°
2026-04-23 13:34 7.26982 80.31796 14952 ft 366 kts 86°
2026-04-23 13:35 7.27120 80.34361 15419 ft 368 kts 86°
2026-04-23 13:35 7.27257 80.36944 15886 ft 370 kts 86°
2026-04-23 13:35 7.27396 80.39542 16354 ft 372 kts 86°
2026-04-23 13:35 7.27546 80.42148 16816 ft 374 kts 84°
2026-04-23 13:36 7.28014 80.44732 17268 ft 376 kts 73°
2026-04-23 13:36 7.28867 80.47223 17748 ft 378 kts 70°
2026-04-23 13:36 7.29780 80.49710 18231 ft 379 kts 69°
2026-04-23 13:36 7.30711 80.52203 18617 ft 382 kts 69°
2026-04-23 13:37 7.31655 80.54711 18964 ft 386 kts 69°
2026-04-23 13:37 7.32614 80.57258 19280 ft 390 kts 69°
2026-04-23 13:37 7.33581 80.59823 19659 ft 393 kts 69°
2026-04-23 13:37 7.34554 80.62408 20056 ft 396 kts 69°
2026-04-23 13:38 7.35532 80.65011 20454 ft 399 kts 69°
2026-04-23 13:38 7.36514 80.67630 20825 ft 402 kts 69°
2026-04-23 13:38 7.37503 80.70271 21240 ft 404 kts 69°
2026-04-23 13:38 7.38498 80.72929 21627 ft 407 kts 69°
2026-04-23 13:39 7.39501 80.75611 21997 ft 410 kts 69°
2026-04-23 13:39 7.40505 80.78306 22367 ft 413 kts 69°
2026-04-23 13:39 7.41517 80.81022 22721 ft 416 kts 69°
2026-04-23 13:39 7.42539 80.83760 23078 ft 419 kts 69°
2026-04-23 13:40 7.43567 80.86511 23424 ft 421 kts 69°
2026-04-23 13:40 7.44607 80.89286 23706 ft 424 kts 69°
2026-04-23 13:40 7.45652 80.92071 23981 ft 426 kts 70°
2026-04-23 13:40 7.46698 80.94866 24308 ft 427 kts 70°
2026-04-23 13:41 7.47747 80.97675 24606 ft 429 kts 70°
2026-04-23 13:41 7.48800 81.00497 24863 ft 431 kts 70°
2026-04-23 13:41 7.49858 81.03333 25123 ft 434 kts 70°
2026-04-23 13:41 7.50907 81.06145 25376 ft 436 kts 70°
2026-04-23 13:42 7.51977 81.09016 25619 ft 439 kts 70°
2026-04-23 13:42 7.53051 81.11902 25879 ft 441 kts 70°
2026-04-23 13:42 7.54133 81.14805 26125 ft 443 kts 70°
2026-04-23 13:42 7.55217 81.17720 26383 ft 445 kts 70°
2026-04-23 13:43 7.56307 81.20648 26627 ft 447 kts 70°
2026-04-23 13:43 7.57404 81.23588 26875 ft 449 kts 70°
2026-04-23 13:43 7.58506 81.26542 27105 ft 451 kts 70°
2026-04-23 13:43 7.59611 81.29506 27348 ft 453 kts 70°
2026-04-23 13:44 7.60718 81.32479 27603 ft 454 kts 71°
2026-04-23 13:44 7.61831 81.35463 27844 ft 456 kts 71°
2026-04-23 13:44 7.62947 81.38462 28080 ft 458 kts 71°
2026-04-23 13:44 7.64065 81.41471 28323 ft 459 kts 71°
2026-04-23 13:45 7.65189 81.44495 28557 ft 461 kts 71°
2026-04-23 13:45 7.66315 81.47520 28880 ft 461 kts 71°
2026-04-23 13:45 7.67441 81.50547 29219 ft 461 kts 71°
2026-04-23 13:45 7.68565 81.53568 29567 ft 461 kts 71°
2026-04-23 13:46 7.69688 81.56593 29904 ft 460 kts 71°
2026-04-23 13:46 7.70811 81.59616 30195 ft 460 kts 71°
2026-04-23 13:46 7.71933 81.62633 30483 ft 460 kts 71°
2026-04-23 13:46 7.73054 81.65648 30777 ft 459 kts 71°
2026-04-23 13:47 7.74168 81.68651 31178 ft 455 kts 71°
2026-04-23 13:47 7.75275 81.71634 31546 ft 454 kts 71°
2026-04-23 13:47 7.76382 81.74612 31858 ft 453 kts 71°
2026-04-23 13:47 7.77488 81.77582 32158 ft 453 kts 71°
2026-04-23 13:48 7.78592 81.80559 32448 ft 453 kts 72°
2026-04-23 13:48 7.79692 81.83538 32737 ft 453 kts 72°
2026-04-23 13:48 7.80795 81.86516 33017 ft 453 kts 72°
2026-04-23 13:48 7.81902 81.89495 33285 ft 454 kts 71°
2026-04-23 13:49 7.83011 81.92476 33546 ft 454 kts 72°
2026-04-23 13:49 7.84117 81.95457 33804 ft 454 kts 72°
2026-04-23 13:49 7.85222 81.98441 34031 ft 454 kts 72°
2026-04-23 13:49 7.86324 82.01423 34255 ft 454 kts 72°
2026-04-23 13:50 7.87424 82.04408 34480 ft 454 kts 72°
2026-04-23 13:50 7.88525 82.07391 34700 ft 454 kts 72°
2026-04-23 13:50 7.89626 82.10377 34812 ft 455 kts 72°
2026-04-23 13:51 7.91858 82.16418 34842 ft 463 kts 72°
2026-04-23 13:51 7.94103 82.22480 34844 ft 465 kts 72°
2026-04-23 13:52 7.96366 82.28590 34845 ft 465 kts 72°
2026-04-23 13:52 7.98619 82.34710 34841 ft 465 kts 72°
2026-04-23 13:53 8.00868 82.40830 34845 ft 465 kts 72°
2026-04-23 13:53 8.03130 82.46943 34853 ft 465 kts 71°
2026-04-23 13:54 8.05397 82.53049 34852 ft 464 kts 71°
2026-04-23 13:54 8.07649 82.59153 34852 ft 464 kts 72°
2026-04-23 13:55 8.09894 82.65254 34852 ft 464 kts 72°
2026-04-23 13:55 8.12141 82.71358 34856 ft 464 kts 72°
2026-04-23 13:56 8.14385 82.77460 34850 ft 464 kts 72°
2026-04-23 13:56 8.16625 82.83557 34858 ft 463 kts 72°
2026-04-23 13:57 8.18861 82.89649 34867 ft 462 kts 72°
2026-04-23 13:57 8.21092 82.95733 34866 ft 462 kts 72°
2026-04-23 13:58 8.23333 83.01818 34865 ft 462 kts 71°
2026-04-23 13:58 8.25564 83.07897 34864 ft 462 kts 72°
2026-04-23 13:59 8.27791 83.13977 34865 ft 462 kts 72°
2026-04-23 13:59 8.30018 83.20057 34865 ft 462 kts 72°
2026-04-23 14:00 8.31870 83.25108 34863 ft 461 kts 72°
2026-04-23 14:00 8.34480 83.32203 34865 ft 461 kts 72°
2026-04-23 14:01 8.36703 83.38275 34865 ft 461 kts 72°
2026-04-23 14:01 8.38908 83.44309 34863 ft 461 kts 72°
2026-04-23 14:02 8.41127 83.50384 34864 ft 461 kts 72°
2026-04-23 14:02 8.43344 83.56459 34852 ft 462 kts 72°
2026-04-23 14:03 8.45569 83.62554 34847 ft 463 kts 71°
2026-04-23 14:03 8.47801 83.68658 34847 ft 463 kts 72°
2026-04-23 14:04 8.50031 83.74771 34847 ft 464 kts 71°
2026-04-23 14:04 8.52265 83.80884 34852 ft 464 kts 72°
2026-04-23 14:05 8.54498 83.87006 34860 ft 464 kts 72°
2026-04-23 14:05 8.56723 83.93132 34857 ft 465 kts 72°
2026-04-23 14:06 8.58952 83.99265 34853 ft 465 kts 72°
2026-04-23 14:06 8.61189 84.05404 34849 ft 466 kts 72°
2026-04-23 14:07 8.63428 84.11549 34852 ft 466 kts 72°
2026-04-23 14:07 8.66778 84.20774 34854 ft 466 kts 72°
2026-04-23 14:08 8.69012 84.26925 34857 ft 466 kts 72°
2026-04-23 14:08 8.71242 84.33078 34864 ft 466 kts 72°
2026-04-23 14:09 8.73472 84.39219 34869 ft 465 kts 72°
2026-04-23 14:09 8.75698 84.45353 34868 ft 465 kts 72°
2026-04-23 14:10 8.77924 84.51481 34867 ft 464 kts 72°
2026-04-23 14:10 8.80130 84.57564 34866 ft 464 kts 72°
2026-04-23 14:11 8.82357 84.63729 34864 ft 464 kts 72°
2026-04-23 14:11 8.84569 84.69852 34864 ft 464 kts 72°
2026-04-23 14:12 8.86783 84.75976 34866 ft 464 kts 72°
2026-04-23 14:12 8.88996 84.82104 34866 ft 464 kts 72°
2026-04-23 14:13 8.91193 84.88193 34868 ft 464 kts 72°
2026-04-23 14:13 8.93410 84.94321 34868 ft 464 kts 72°
2026-04-23 14:14 8.95622 85.00449 34866 ft 464 kts 72°
2026-04-23 14:14 8.97831 85.06580 34865 ft 464 kts 72°
2026-04-23 14:15 9.00039 85.12720 34868 ft 465 kts 72°
2026-04-23 14:15 9.02252 85.18863 34868 ft 465 kts 72°
2026-04-23 14:16 9.04460 85.25005 34868 ft 465 kts 72°
2026-04-23 14:16 9.06676 85.31150 34869 ft 465 kts 72°
2026-04-23 14:17 9.08886 85.37298 34866 ft 465 kts 72°
2026-04-23 14:17 9.11095 85.43444 34862 ft 465 kts 72°
2026-04-23 14:18 9.13306 85.49592 34861 ft 465 kts 72°
2026-04-23 14:18 9.15514 85.55743 34859 ft 465 kts 72°
2026-04-23 14:19 9.17346 85.60862 34859 ft 465 kts 72°
2026-04-23 14:19 9.19552 85.67023 34862 ft 466 kts 72°
2026-04-23 14:20 9.21757 85.73182 34864 ft 465 kts 72°
2026-04-23 14:20 9.23966 85.79343 34862 ft 465 kts 72°
2026-04-23 14:21 9.26174 85.85500 34862 ft 466 kts 72°
2026-04-23 14:21 9.28382 85.91668 34865 ft 466 kts 72°
2026-04-23 14:22 9.30577 85.97835 34869 ft 466 kts 72°
2026-04-23 14:22 9.32779 86.04012 34870 ft 466 kts 72°
2026-04-23 14:23 9.34984 86.10187 34871 ft 466 kts 72°
2026-04-23 14:23 9.37190 86.16362 34873 ft 466 kts 72°
2026-04-23 14:24 9.39398 86.22536 34872 ft 466 kts 72°
2026-04-23 14:24 9.41599 86.28711 34872 ft 466 kts 72°
2026-04-23 14:25 9.43800 86.34893 34871 ft 466 kts 72°
2026-04-23 14:25 9.45995 86.41074 34870 ft 467 kts 72°
2026-04-23 14:26 9.48190 86.47257 34870 ft 467 kts 72°
2026-04-23 14:26 9.50389 86.53444 34869 ft 467 kts 72°
2026-04-23 14:27 9.52567 86.59589 34867 ft 467 kts 72°
2026-04-23 14:27 9.54762 86.65782 34866 ft 467 kts 72°
2026-04-23 14:28 9.56972 86.72012 34870 ft 467 kts 72°
2026-04-23 14:28 9.59155 86.78157 34867 ft 467 kts 72°
2026-04-23 14:29 9.61351 86.84349 34866 ft 467 kts 72°
2026-04-23 14:29 9.63545 86.90537 34865 ft 467 kts 72°
2026-04-23 14:30 9.65740 86.96726 34866 ft 467 kts 72°
2026-04-23 14:30 9.67928 87.02921 34864 ft 467 kts 72°
2026-04-23 14:31 9.70114 87.09117 34868 ft 467 kts 72°
2026-04-23 14:31 9.72297 87.15313 34872 ft 467 kts 72°
2026-04-23 14:32 9.74481 87.21515 34874 ft 467 kts 72°
2026-04-23 14:32 9.76680 87.27732 34836 ft 470 kts 72°
2026-04-23 14:33 9.78897 87.34003 34824 ft 475 kts 72°
2026-04-23 14:33 9.81146 87.40379 34861 ft 485 kts 72°
2026-04-23 14:34 9.83417 87.46842 34859 ft 488 kts 72°
2026-04-23 14:34 9.85699 87.53335 34861 ft 489 kts 72°
2026-04-23 14:35 9.87984 87.59831 34858 ft 489 kts 72°
2026-04-23 14:35 9.90272 87.66329 34864 ft 489 kts 72°
2026-04-23 14:36 9.92555 87.72835 34864 ft 490 kts 72°
2026-04-23 14:36 9.94831 87.79346 34865 ft 490 kts 72°
2026-04-23 14:37 9.97112 87.85863 34872 ft 490 kts 72°
2026-04-23 14:37 9.99394 87.92379 34881 ft 490 kts 72°
2026-04-23 14:38 10.01678 87.98899 34883 ft 490 kts 72°
2026-04-23 14:38 10.03959 88.05421 34880 ft 491 kts 72°
2026-04-23 14:39 10.06241 88.11943 34881 ft 490 kts 72°
2026-04-23 14:39 10.08525 88.18465 34880 ft 490 kts 71°
2026-04-23 14:40 10.10807 88.24977 34882 ft 490 kts 72°
2026-04-23 14:40 10.13075 88.31494 34881 ft 490 kts 72°
2026-04-23 14:41 10.15342 88.38015 34885 ft 490 kts 72°
2026-04-23 14:41 10.17618 88.44539 34887 ft 490 kts 72°
2026-04-23 14:42 10.19888 88.51060 34880 ft 490 kts 72°
2026-04-23 14:42 10.22192 88.57567 34878 ft 490 kts 71°
2026-04-23 14:43 10.24604 88.64049 34884 ft 491 kts 70°
2026-04-23 14:43 10.27023 88.70526 34882 ft 491 kts 70°
2026-04-23 14:44 10.29421 88.77017 34882 ft 491 kts 71°
2026-04-23 14:44 10.31802 88.83509 34885 ft 491 kts 71°
2026-04-23 14:45 10.34183 88.90003 34886 ft 490 kts 70°
2026-04-23 14:45 10.36569 88.96472 34890 ft 489 kts 70°
2026-04-23 14:46 10.38939 89.02932 34882 ft 488 kts 71°
2026-04-23 14:46 10.41285 89.09348 34883 ft 487 kts 70°
2026-04-23 14:47 10.43672 89.15842 34883 ft 487 kts 70°
2026-04-23 14:47 10.46023 89.22247 34884 ft 487 kts 71°
2026-04-23 14:48 10.48394 89.28736 34891 ft 486 kts 70°
2026-04-23 14:48 10.50754 89.35164 34879 ft 485 kts 70°
2026-04-23 14:49 10.53085 89.41541 34880 ft 484 kts 70°
2026-04-23 14:49 10.55443 89.47998 34882 ft 484 kts 70°
2026-04-23 14:50 10.57788 89.54409 34882 ft 484 kts 70°
2026-04-23 14:50 10.60124 89.60828 34870 ft 485 kts 71°
2026-04-23 14:51 10.62446 89.67214 34869 ft 485 kts 70°
2026-04-23 14:51 10.64798 89.73646 34869 ft 485 kts 70°
2026-04-23 14:52 10.67145 89.80082 34876 ft 486 kts 71°
2026-04-23 14:52 10.69488 89.86522 34874 ft 486 kts 71°
2026-04-23 14:53 10.71835 89.92966 34869 ft 486 kts 70°
2026-04-23 14:53 10.74182 89.99409 34873 ft 486 kts 70°
2026-04-23 14:54 10.76456 90.05868 34890 ft 485 kts 71°
2026-04-23 14:54 10.78640 90.12347 34890 ft 484 kts 72°
2026-04-23 14:55 10.80833 90.18811 34889 ft 483 kts 71°
2026-04-23 14:55 10.83050 90.25263 34888 ft 483 kts 71°
2026-04-23 14:56 10.85274 90.31708 34882 ft 483 kts 71°
2026-04-23 14:56 10.87490 90.38155 34883 ft 483 kts 71°
2026-04-23 14:57 10.89697 90.44596 34888 ft 482 kts 71°
2026-04-23 14:57 10.91892 90.51031 34889 ft 481 kts 71°
2026-04-23 14:58 10.94090 90.57461 34887 ft 481 kts 71°
2026-04-23 14:58 10.96287 90.63889 34877 ft 481 kts 71°
2026-04-23 14:59 10.98475 90.70281 34877 ft 482 kts 71°
2026-04-23 14:59 11.00679 90.76720 34870 ft 482 kts 71°
2026-04-23 15:00 11.02873 90.83157 34887 ft 481 kts 71°
2026-04-23 15:00 11.05060 90.89599 34889 ft 481 kts 71°
2026-04-23 15:01 11.07250 90.96035 34888 ft 481 kts 71°
2026-04-23 15:01 11.09442 91.02465 34887 ft 481 kts 71°
2026-04-23 15:02 11.11632 91.08898 34885 ft 481 kts 71°
2026-04-23 15:02 11.13813 91.15332 34884 ft 481 kts 71°
2026-04-23 15:03 11.15988 91.21764 34887 ft 480 kts 71°
2026-04-23 15:03 11.18172 91.28186 34888 ft 480 kts 71°
2026-04-23 15:04 11.20356 91.34610 34888 ft 480 kts 71°
2026-04-23 15:04 11.22531 91.41034 34887 ft 480 kts 71°
2026-04-23 15:05 11.24335 91.46377 34886 ft 480 kts 71°
2026-04-23 15:05 11.26499 91.52802 34888 ft 480 kts 71°
2026-04-23 15:06 11.28667 91.59228 34889 ft 479 kts 71°
2026-04-23 15:06 11.31192 91.66692 34891 ft 479 kts 71°
2026-04-23 15:07 11.33009 91.72074 34885 ft 480 kts 71°
2026-04-23 15:07 11.35171 91.78501 34884 ft 480 kts 71°
2026-04-23 15:08 11.37280 91.84957 34890 ft 480 kts 72°
2026-04-23 15:09 11.40249 91.94705 34890 ft 480 kts 73°
2026-04-23 15:09 11.42231 92.01199 34885 ft 480 kts 73°
2026-04-23 15:10 11.44243 92.07682 34881 ft 480 kts 72°
2026-04-23 15:10 11.46263 92.14159 34880 ft 479 kts 72°
2026-04-23 15:11 11.48262 92.20594 34877 ft 479 kts 73°
2026-04-23 15:11 11.50273 92.27116 34876 ft 479 kts 73°
2026-04-23 15:12 11.52273 92.33592 34863 ft 479 kts 72°
2026-04-23 15:12 11.54275 92.40080 34857 ft 480 kts 72°
2026-04-23 15:13 11.56273 92.46571 34861 ft 480 kts 73°
2026-04-23 15:13 11.58269 92.53066 34864 ft 480 kts 73°
2026-04-23 15:14 11.60275 92.59566 34867 ft 481 kts 73°
2026-04-23 15:14 11.62263 92.66021 34871 ft 481 kts 73°
2026-04-23 15:15 11.64266 92.72538 34871 ft 482 kts 73°
2026-04-23 15:15 11.66794 92.78861 34878 ft 482 kts 65°
2026-04-23 15:16 11.69591 92.85074 34880 ft 482 kts 65°
2026-04-23 15:16 11.72379 92.91290 34889 ft 482 kts 65°
2026-04-23 15:17 11.75164 92.97512 34889 ft 482 kts 65°
2026-04-23 15:17 11.77952 93.03723 34888 ft 482 kts 65°
2026-04-23 15:18 11.80744 93.09936 34880 ft 481 kts 65°
2026-04-23 15:18 11.83529 93.16152 34881 ft 481 kts 65°
2026-04-23 15:19 11.86305 93.22372 34881 ft 482 kts 65°
2026-04-23 15:19 11.89082 93.28596 34883 ft 482 kts 65°
2026-04-23 15:20 11.91863 93.34817 34884 ft 482 kts 65°
2026-04-23 15:20 11.94646 93.41047 34887 ft 482 kts 65°
2026-04-23 15:21 11.97421 93.47274 34886 ft 482 kts 65°
2026-04-23 15:21 12.00202 93.53503 34884 ft 482 kts 65°
2026-04-23 15:22 12.02979 93.59735 34886 ft 482 kts 66°
2026-04-23 15:22 12.05755 93.65975 34883 ft 483 kts 65°
2026-04-23 15:23 12.08539 93.72215 34882 ft 483 kts 66°
2026-04-23 15:23 12.11317 93.78470 34883 ft 483 kts 66°
2026-04-23 15:24 12.14091 93.84726 34884 ft 483 kts 65°
2026-04-23 15:24 12.16870 93.90984 34886 ft 484 kts 65°
2026-04-23 15:25 12.19649 93.97242 34885 ft 484 kts 65°
2026-04-23 15:25 12.22426 94.03507 34886 ft 484 kts 65°
2026-04-23 15:26 12.25231 94.09758 34886 ft 484 kts 65°
2026-04-23 15:26 12.28038 94.15962 34886 ft 484 kts 65°
2026-04-23 15:27 12.30862 94.22204 34887 ft 484 kts 65°
2026-04-23 15:27 12.33669 94.28455 34890 ft 483 kts 65°
2026-04-23 15:28 12.36470 94.34706 34891 ft 483 kts 65°
2026-04-23 15:28 12.39269 94.40961 34886 ft 484 kts 65°
2026-04-23 15:29 12.42088 94.47213 34885 ft 484 kts 65°
2026-04-23 15:29 12.44922 94.53464 34885 ft 484 kts 65°
2026-04-23 15:30 12.47759 94.59715 34885 ft 485 kts 65°
2026-04-23 15:30 12.50592 94.65976 34888 ft 485 kts 65°
2026-04-23 15:31 12.53423 94.72232 34891 ft 484 kts 65°
2026-04-23 15:31 12.56246 94.78491 34888 ft 484 kts 65°
2026-04-23 15:32 12.59068 94.84753 34887 ft 484 kts 65°
2026-04-23 15:32 12.61891 94.91014 34887 ft 484 kts 65°
2026-04-23 15:33 12.64713 94.97270 34890 ft 484 kts 65°
2026-04-23 15:33 12.67530 95.03533 34887 ft 484 kts 65°
2026-04-23 15:34 12.70347 95.09793 34884 ft 484 kts 65°
2026-04-23 15:34 12.73158 95.16050 34881 ft 484 kts 65°
2026-04-23 15:35 12.75978 95.22319 34877 ft 484 kts 65°
2026-04-23 15:35 12.78802 95.28589 34877 ft 485 kts 65°
2026-04-23 15:36 12.81616 95.34860 34880 ft 485 kts 65°
2026-04-23 15:36 12.84421 95.41147 34881 ft 485 kts 65°
2026-04-23 15:37 12.87228 95.47429 34881 ft 485 kts 65°
2026-04-23 15:37 12.89580 95.52635 34881 ft 485 kts 65°
2026-04-23 15:38 12.92938 95.59941 34881 ft 484 kts 65°
2026-04-23 15:38 12.95804 95.66189 34881 ft 484 kts 65°
2026-04-23 15:39 12.98656 95.72448 34882 ft 484 kts 65°
2026-04-23 15:39 13.01497 95.78702 34884 ft 484 kts 65°
2026-04-23 15:40 13.04344 95.84950 34881 ft 483 kts 65°
2026-04-23 15:40 13.07191 95.91195 34880 ft 483 kts 65°
2026-04-23 15:41 13.10031 95.97444 34876 ft 484 kts 65°
2026-04-23 15:41 13.12872 96.03696 34875 ft 484 kts 65°
2026-04-23 15:42 13.15710 96.09959 34880 ft 484 kts 65°
2026-04-23 15:42 13.18553 96.16214 34882 ft 484 kts 65°
2026-04-23 15:43 13.21396 96.22474 34884 ft 484 kts 65°
2026-04-23 15:43 13.24223 96.28738 34883 ft 484 kts 65°
2026-04-23 15:44 13.27051 96.35001 34882 ft 484 kts 65°
2026-04-23 15:44 13.29893 96.41259 34882 ft 484 kts 65°
2026-04-23 15:45 13.32709 96.47480 34886 ft 483 kts 65°
2026-04-23 15:45 13.35541 96.53778 34884 ft 483 kts 65°
2026-04-23 15:46 13.38336 96.59992 34883 ft 482 kts 65°
2026-04-23 15:46 13.41156 96.66245 34885 ft 483 kts 65°
2026-04-23 15:47 13.43981 96.72503 34878 ft 483 kts 65°
2026-04-23 15:47 13.46804 96.78772 34876 ft 483 kts 65°
2026-04-23 15:48 13.49619 96.85044 34874 ft 484 kts 65°
2026-04-23 15:48 13.52441 96.91316 34879 ft 483 kts 65°
2026-04-23 15:49 13.55253 96.97580 34879 ft 483 kts 65°
2026-04-23 15:49 13.58053 97.03846 34878 ft 482 kts 65°
2026-04-23 15:50 13.60858 97.10111 34876 ft 482 kts 65°
2026-04-23 15:50 13.63666 97.16369 34876 ft 482 kts 65°
2026-04-23 15:51 13.65998 97.21572 34873 ft 482 kts 65°
2026-04-23 15:51 13.68800 97.27831 34871 ft 482 kts 65°
2026-04-23 15:52 13.71598 97.34093 34872 ft 482 kts 65°
2026-04-23 15:52 13.74391 97.40355 34872 ft 482 kts 65°
2026-04-23 15:53 13.77188 97.46630 34857 ft 483 kts 65°
2026-04-23 15:53 13.79990 97.52908 34856 ft 483 kts 65°
2026-04-23 15:54 13.82798 97.59197 34875 ft 484 kts 65°
2026-04-23 15:54 13.85594 97.65487 34877 ft 483 kts 65°
2026-04-23 15:55 13.88373 97.71736 34879 ft 483 kts 65°
2026-04-23 15:55 13.91167 97.78027 34879 ft 483 kts 65°
2026-04-23 15:56 13.93957 97.84315 34879 ft 483 kts 65°
2026-04-23 15:56 13.96742 97.90609 34880 ft 483 kts 65°
2026-04-23 15:57 13.99533 97.96911 34880 ft 483 kts 65°
2026-04-23 15:57 14.02323 98.03202 34883 ft 483 kts 65°
2026-04-23 15:58 14.05110 98.09489 34885 ft 482 kts 65°
2026-04-23 15:58 14.07889 98.15771 34895 ft 482 kts 65°
2026-04-23 15:59 14.10448 98.22145 34883 ft 482 kts 74°
2026-04-23 15:59 14.12214 98.28792 34869 ft 474 kts 75°
2026-04-23 16:00 14.13916 98.35220 34886 ft 460 kts 75°
2026-04-23 16:00 14.15594 98.41554 34892 ft 457 kts 75°
2026-04-23 16:01 14.17264 98.47863 34891 ft 456 kts 75°
2026-04-23 16:01 14.18927 98.54176 34893 ft 456 kts 75°
2026-04-23 16:02 14.20591 98.60485 34895 ft 456 kts 75°
2026-04-23 16:02 14.22256 98.66795 34894 ft 456 kts 75°
2026-04-23 16:03 14.23921 98.73112 34902 ft 457 kts 75°
2026-04-23 16:03 14.25596 98.79420 34898 ft 456 kts 75°
2026-04-23 16:04 14.27262 98.85726 34900 ft 456 kts 75°
2026-04-23 16:04 14.28910 98.91987 34899 ft 455 kts 75°
2026-04-23 16:05 14.29933 98.97341 34890 ft 455 kts 87°
2026-04-23 16:05 14.29738 99.01683 34889 ft 454 kts 100°
2026-04-23 16:05 14.29046 99.04817 34565 ft 455 kts 104°
2026-04-23 16:05 14.28249 99.07982 33972 ft 456 kts 105°
2026-04-23 16:06 14.27445 99.11137 33429 ft 454 kts 104°
2026-04-23 16:06 14.26644 99.14273 32934 ft 452 kts 104°
2026-04-23 16:06 14.25848 99.17397 32430 ft 449 kts 104°
2026-04-23 16:06 14.25062 99.20495 31936 ft 446 kts 104°
2026-04-23 16:07 14.24279 99.23582 31449 ft 443 kts 104°
2026-04-23 16:07 14.23501 99.26649 30954 ft 441 kts 104°
2026-04-23 16:07 14.22729 99.29699 30480 ft 439 kts 104°
2026-04-23 16:07 14.21958 99.32737 30014 ft 437 kts 104°
2026-04-23 16:08 14.21188 99.35754 29505 ft 434 kts 104°
2026-04-23 16:08 14.20425 99.38750 29067 ft 430 kts 104°
2026-04-23 16:08 14.19669 99.41717 28618 ft 426 kts 104°
2026-04-23 16:08 14.18922 99.44654 28190 ft 422 kts 103°
2026-04-23 16:09 14.18435 99.47620 27769 ft 418 kts 92°
2026-04-23 16:09 14.18549 99.50590 27338 ft 413 kts 80°
2026-04-23 16:09 14.19240 99.53444 26926 ft 409 kts 68°
2026-04-23 16:09 14.20325 99.56141 26504 ft 407 kts 66°
2026-04-23 16:10 14.21423 99.58823 26081 ft 406 kts 66°
2026-04-23 16:10 14.22513 99.61503 25657 ft 405 kts 66°
2026-04-23 16:10 14.23597 99.64182 25212 ft 405 kts 66°
2026-04-23 16:10 14.24680 99.66860 24777 ft 405 kts 66°
2026-04-23 16:11 14.25763 99.69543 24318 ft 405 kts 66°
2026-04-23 16:11 14.26838 99.72210 23952 ft 403 kts 67°
2026-04-23 16:11 14.27915 99.74877 23618 ft 400 kts 66°
2026-04-23 16:11 14.28981 99.77511 23218 ft 397 kts 67°
2026-04-23 16:12 14.30043 99.80133 22770 ft 395 kts 66°
2026-04-23 16:12 14.31095 99.82731 22260 ft 390 kts 66°
2026-04-23 16:12 14.32129 99.85294 21524 ft 383 kts 66°
2026-04-23 16:12 14.33133 99.87789 21075 ft 369 kts 67°
2026-04-23 16:13 14.34097 99.90188 20653 ft 356 kts 66°
2026-04-23 16:13 14.35930 99.94741 19850 ft 333 kts 66°
2026-04-23 16:13 14.36808 99.96916 19460 ft 324 kts 66°
2026-04-23 16:14 14.37673 99.99061 19077 ft 324 kts 66°
2026-04-23 16:14 14.38539 100.01204 18698 ft 323 kts 66°
2026-04-23 16:14 14.39381 100.03355 18322 ft 325 kts 70°
2026-04-23 16:14 14.39874 100.05631 17900 ft 327 kts 84°
2026-04-23 16:15 14.39869 100.07941 17619 ft 329 kts 96°
2026-04-23 16:15 14.39392 100.10301 17371 ft 341 kts 104°
2026-04-23 16:15 14.38794 100.12676 17113 ft 342 kts 104°
2026-04-23 16:15 14.38199 100.15043 16860 ft 341 kts 104°
2026-04-23 16:16 14.37608 100.17405 16610 ft 339 kts 104°
2026-04-23 16:16 14.37023 100.19757 16351 ft 338 kts 104°
2026-04-23 16:16 14.36443 100.22093 16102 ft 335 kts 103°
2026-04-23 16:16 14.35864 100.24413 15855 ft 333 kts 103°
2026-04-23 16:17 14.35286 100.26724 15615 ft 332 kts 104°
2026-04-23 16:17 14.34709 100.29021 15366 ft 330 kts 104°
2026-04-23 16:17 14.34134 100.31304 15120 ft 328 kts 103°
2026-04-23 16:17 14.33562 100.33578 14883 ft 327 kts 103°
2026-04-23 16:18 14.32993 100.35839 14643 ft 325 kts 103°
2026-04-23 16:18 14.32427 100.38093 14408 ft 324 kts 103°
2026-04-23 16:18 14.31864 100.40337 14169 ft 323 kts 104°
2026-04-23 16:18 14.31305 100.42571 13945 ft 321 kts 103°
2026-04-23 16:19 14.30748 100.44799 13714 ft 320 kts 104°
2026-04-23 16:19 14.30193 100.47011 13460 ft 318 kts 104°
2026-04-23 16:19 14.29640 100.49209 13208 ft 315 kts 103°
2026-04-23 16:19 14.29093 100.51385 12983 ft 313 kts 104°
2026-04-23 16:20 14.28549 100.53552 12746 ft 311 kts 103°
2026-04-23 16:20 14.28006 100.55708 12511 ft 310 kts 103°
2026-04-23 16:20 14.27467 100.57850 12283 ft 308 kts 104°
2026-04-23 16:20 14.26930 100.59979 12050 ft 306 kts 104°
2026-04-23 16:21 14.26394 100.62102 11809 ft 305 kts 104°
2026-04-23 16:21 14.25589 100.64108 11582 ft 304 kts 125°
2026-04-23 16:21 14.24032 100.65543 11443 ft 304 kts 152°
2026-04-23 16:21 14.22007 100.66120 11254 ft 305 kts 179°
2026-04-23 16:22 14.19920 100.65780 11028 ft 305 kts 194°
2026-04-23 16:22 14.17873 100.65238 10791 ft 304 kts 194°
2026-04-23 16:22 14.15828 100.64686 10559 ft 303 kts 194°
2026-04-23 16:22 14.13793 100.64136 10327 ft 302 kts 194°
2026-04-23 16:23 14.11766 100.63593 10095 ft 300 kts 194°
2026-04-23 16:23 14.09749 100.63058 9856 ft 299 kts 194°
2026-04-23 16:23 14.07733 100.62542 9619 ft 298 kts 193°
2026-04-23 16:23 14.05724 100.62028 9402 ft 297 kts 194°
2026-04-23 16:24 14.03762 100.61529 9204 ft 291 kts 194°
2026-04-23 16:24 14.01819 100.61133 9081 ft 280 kts 179°
2026-04-23 16:24 13.99996 100.61618 8960 ft 268 kts 147°
2026-04-23 16:24 13.98748 100.62965 8764 ft 260 kts 116°
2026-04-23 16:25 13.98186 100.64736 8426 ft 260 kts 104°
2026-04-23 16:25 13.97728 100.66536 8157 ft 258 kts 104°
2026-04-23 16:25 13.97271 100.68323 7838 ft 259 kts 104°
2026-04-23 16:25 13.97079 100.70135 7607 ft 255 kts 81°
2026-04-23 16:26 13.97823 100.71770 7250 ft 256 kts 47°
2026-04-23 16:26 13.99333 100.72718 6846 ft 259 kts 12°
2026-04-23 16:26 14.01120 100.72931 6511 ft 259 kts
2026-04-23 16:26 14.02737 100.73661 6192 ft 256 kts 45°
2026-04-23 16:27 14.03625 100.75194 5898 ft 250 kts 78°
2026-04-23 16:27 14.03669 100.76939 5645 ft 243 kts 105°
2026-04-23 16:27 14.03219 100.78607 5386 ft 241 kts 108°
2026-04-23 16:27 14.02770 100.80262 5121 ft 239 kts 107°
2026-04-23 16:28 14.02122 100.81916 4853 ft 263 kts 126°
2026-04-23 16:28 14.00811 100.83200 4609 ft 259 kts 152°
2026-04-23 16:28 13.99147 100.83745 4487 ft 248 kts 175°
2026-04-23 16:28 13.97467 100.83559 4367 ft 239 kts 193°
2026-04-23 16:29 13.95870 100.83134 4052 ft 238 kts 194°
2026-04-23 16:29 13.94250 100.82704 3553 ft 239 kts 194°
2026-04-23 16:29 13.92679 100.82290 3255 ft 227 kts 194°
2026-04-23 16:29 13.91193 100.81899 3028 ft 214 kts 194°
2026-04-23 16:30 13.89821 100.81538 2932 ft 195 kts 194°
2026-04-23 16:30 13.88549 100.81203 2854 ft 183 kts 194°
2026-04-23 16:30 13.87318 100.80878 2781 ft 185 kts 195°
2026-04-23 16:30 13.86062 100.80547 2701 ft 186 kts 194°
2026-04-23 16:31 13.84869 100.80234 2631 ft 167 kts 194°
2026-04-23 16:31 13.83794 100.79951 2440 ft 151 kts 194°
2026-04-23 16:31 13.82818 100.79694 2343 ft 142 kts 194°
2026-04-23 16:31 13.81878 100.79446 2221 ft 138 kts 195°
2026-04-23 16:32 13.80955 100.79203 2132 ft 136 kts 195°
2026-04-23 16:32 13.80031 100.78960 2055 ft 138 kts 194°
2026-04-23 16:32 13.79103 100.78728 1928 ft 136 kts 194°
2026-04-23 16:32 13.78184 100.78498 1807 ft 137 kts 187°
2026-04-23 16:33 13.77269 100.78218 1607 ft 136 kts 197°
2026-04-23 16:33 13.76356 100.77989 1418 ft 135 kts 192°
2026-04-23 16:33 13.75447 100.77750 1254 ft 136 kts 194°
2026-04-23 16:33 13.74534 100.77491 1050 ft 135 kts 194°
2026-04-23 16:34 13.73624 100.77271 905 ft 135 kts 194°
2026-04-23 16:34 13.72720 100.77040 754 ft 134 kts 191°
2026-04-23 16:34 13.71816 100.76799 587 ft 134 kts 194°
2026-04-23 16:34 13.70897 100.76565 402 ft 136 kts 193°
2026-04-23 16:35 13.69990 100.76317 237 ft 133 kts 193°
2026-04-23 16:35 13.69091 100.76083 47 ft 133 kts 194°
2026-04-23 16:35 13.68275 100.75869 13 ft 103 kts 194°
2026-04-23 16:35 13.67747 100.75731 11 ft 52 kts 194°
2026-04-23 16:36 13.67553 100.75639 12 ft 18 kts 226°
2026-04-23 16:36 13.67477 100.75567 14 ft 13 kts 223°
2026-04-23 16:36 13.67444 100.75509 13 ft 9 kts 273°
2026-04-23 16:36 13.67457 100.75484 13 ft 2 kts 310°
2026-04-23 16:37 13.67476 100.75473 13 ft 4 kts 344°
2026-04-23 16:37 13.67484 100.75472 13 ft 0 kts 354°
2026-04-23 16:37 13.67486 100.75472 13 ft 2 kts 358°
2026-04-23 16:37 13.67522 100.75480 13 ft 7 kts 13°
2026-04-23 16:38 13.67583 100.75495 13 ft 10 kts 14°
2026-04-23 16:38 13.67662 100.75516 13 ft 13 kts 14°
2026-04-23 16:38 13.67758 100.75540 13 ft 15 kts 14°
2026-04-23 16:38 13.67869 100.75570 13 ft 18 kts 14°
2026-04-23 16:39 13.67998 100.75604 13 ft 21 kts 14°
2026-04-23 16:39 13.68146 100.75643 13 ft 23 kts 14°
2026-04-23 16:39 13.68273 100.75676 13 ft 7 kts 13°
2026-04-23 16:39 13.68314 100.75652 13 ft 9 kts 296°
2026-04-23 16:40 13.68332 100.75581 13 ft 12 kts 284°
2026-04-23 16:40 13.68347 100.75522 14 ft 14 kts 284°
2026-04-23 16:40 13.68375 100.75412 14 ft 17 kts 284°
2026-04-23 16:40 13.68407 100.75281 13 ft 20 kts 284°
2026-04-23 16:41 13.68445 100.75130 16 ft 23 kts 284°
2026-04-23 16:41 13.68489 100.74959 14 ft 26 kts 284°
2026-04-23 16:41 13.68533 100.74782 13 ft 26 kts 284°
2026-04-23 16:41 13.68576 100.74610 13 ft 24 kts 284°
2026-04-23 16:42 13.68617 100.74447 13 ft 10 kts 284°
2026-04-23 16:42 13.68638 100.74386 14 ft 8 kts 303°
2026-04-23 16:42 13.68696 100.74371 13 ft 10 kts 11°
2026-04-23 16:42 13.68775 100.74391 13 ft 13 kts 14°
2026-04-23 16:43 13.68870 100.74416 13 ft 15 kts 14°
2026-04-23 16:43 13.68959 100.74440 13 ft 14 kts 15°
2026-04-23 16:43 13.69012 100.74464 13 ft 5 kts 59°
2026-04-23 16:43 13.69005 100.74501 13 ft 6 kts 107°
2026-04-23 16:44 13.68994 100.74542 13 ft 5 kts 105°
2026-04-23 16:44 13.68992 100.74549 13 ft 1 kts 104°
2026-04-23 16:44 13.68991 100.74552 16 ft 0 kts 104°